Regional Weather Roundup
Issued by NWS

Current Version | Previous Version | Text Only | Print | Product List | Glossary On
Versions: 1 2 3 4 5 6 7 8 9 10 11 12 13 14 15 16 17 18 19 20 21 22 23 24 25 26 27 28 29 30 31 32 33 34 35 36 37 38 39 40 41 42 43 44 45 46 47 48 49 50
000
ASUS44 KEWX 142111
RWRTX
SOUTH TEXAS REGIONAL WEATHER ROUNDUP
NATIONAL WEATHER SERVICE AUSTIN/SAN ANTONIO TX
300 PM CST SUN FEB 14 2016

NOTE: "FAIR" INDICATED FEW OR NO CLOUDS BELOW 12,000 FEET WITH NO
SIGNIFICANT WEATHER AND/OR OBSTRUCTIONS TO VISIBILITY.

* - THESE STATIONS ARE NOT NWS OR FAA STATIONS...AND ARE NOT SUBJECT
    TO NWS AND FAA QUALITY CONTROL.

TXZ171-172-183>190-142200-
TEXAS HILL COUNTRY AND EDWARDS PLATEAU

CITY           SKY/WX    TMP DP  RH WIND       PRES   REMARKS
JUNCTION       PTSUNNY   73  48  41 S13       29.84F
*LLANO         MOSUNNY   73  54  49 S12G17    29.87F
BURNET         MOSUNNY   69  51  52 S15       29.88F
*HORSESHOE BAY MOSUNNY   72  55  54 S13G21    29.86F
*KERRVILLE     CLOUDY    66  56  69 S9        29.90F
*FREDERICKSBRG MOSUNNY   67  52  59 S12G18    29.88F
*ROCKSPRINGS   PTSUNNY   70  52  52 S9        29.90F
*BOERNE STAGE  CLOUDY    68  54  60 SW13      29.90S
*CASTROVILLE   CLOUDY    74  50  42 S13       29.87F
HONDO          CLOUDY    74  54  49 VRB5      29.88F
*UVALDE        CLOUDY    69  56  62 CALM      29.87F
DEL RIO        SUNNY     70  52  52 CALM      29.85F
LAUGHLIN AFB   SUNNY     70  54  55 S6        29.85F
CARRIZO SPRGS  MOSUNNY   77  52  41 S5        29.82F
*EAGLE PASS    CLEAR     75  54  46 VRB5      29.83F
$$

TXZ173-191>194-202-209-217>225-228-142200-
CENTRAL AND SOUTH CENTRAL TEXAS

CITY           SKY/WX    TMP DP  RH WIND       PRES   REMARKS
GEORGETOWN     MOSUNNY   72  55  56 S14G21    29.86F
AUSTIN/BERGSTM CLOUDY    74  54  49 S16G22    29.88F
AUSTIN/MABRY   MOSUNNY   74  55  51 S10G20    29.87F
*AUSTIN/EXEC   PTSUNNY   73  54  49 SW20      29.87F
*LAGO VISTA    PTSUNNY   71  54  55 SW10G20   29.88F
SAN MARCOS     MOSUNNY  N/A N/A N/A S14       29.89F
NEW BRAUNFELS  CLOUDY    75  54  47 SW16      29.87F
RANDOLPH AFB   CLOUDY    71  55  56 S12       29.87F
PT SAN ANTONIO CLOUDY    73  56  56 SE14      29.85F
SAN ANTONIO    CLOUDY    71  55  56 S9        29.87F
STINSON FIELD  CLOUDY    75  53  46 S12       29.84F
*PLEASANTON    CLOUDY    75  52  44 SE12G21   29.86F
*LA GRANGE     CLOUDY    75  57  52 S13G20    29.88S
*GIDDINGS      CLOUDY    73  54  51 SW9       29.93S
*GONZALES      CLOUDY    74  56  52 S9G21     29.87S
$$

TXZ163>164-176>182-195>201-210>213-226-227-235-142200-
SOUTHEAST TEXAS

CITY           SKY/WX    TMP DP  RH WIND       PRES   REMARKS
COLLEGE STN    CLOUDY    75  52  44 SW14G28   29.89F
*BRYAN         CLOUDY    74  53  47 S12G17    29.91F
*CALDWELL      CLOUDY    72  52  49 S15G23    29.92F
*CROCKETT      CLOUDY    73  54  49 S12G18    29.93F
*BRENHAM       CLOUDY    76  55  48 S15G21    29.91S
HUNTSVILLE     PTSUNNY   75  52  44 S13G23    29.91F
CONROE         PTSUNNY   75  51  43 S17G24    29.92F
HOUSTON BUSH   CLOUDY    72  53  51 S12G23    29.92F
HOUSTON HOBBY  CLOUDY    72  55  55 S17G24    29.93F
*HOUSTON SW AP CLOUDY    72  56  58 S8G21     29.94F
PEARLAND       CLOUDY    73  55  53 S17G28    29.95F
HOUSTON HOOKS  CLOUDY    75  55  49 S16G25    29.92F
ELLINGTON FLD  NOT AVBL
SUGAR LAND     CLOUDY    72  56  57 S16G28    29.92F
*HOUSTON EXEC  CLOUDY    73  57  56 S22       29.92F
*CLEVELAND MUN CLOUDY    73  58  57 S16G22    29.94F
*WHARTON       CLOUDY    73  56  54 S21G26    29.92F
*COLUMBUS      PTSUNNY   73  56  56 S14G21    29.89F
*EAGLE LAKE    CLOUDY    73  57  59 S20G28    29.90F
$$

TXZ214>216-236>238-142200-
THE UPPER TEXAS COAST

CITY           SKY/WX    TMP DP  RH WIND       PRES   REMARKS
*ORANGE        PTSUNNY   71  57  61 S12       30.00S
PORT ARTHUR    MOSUNNY   73  58  59 S15       29.97F
GALVESTON      MOSUNNY   67  61  81 S13       29.96F
ANGLETON       PTSUNNY   73  58  59 S23G33    29.94F
*BAY CITY      CLOUDY    73  61  65 S17G23    29.94F
PALACIOS       CLOUDY    73  62  68 S17       29.92F
$$

TXZ229>234-239>247-142200-
TEXAS COASTAL BEND AND RIO GRANDE PLAINS

CITY           SKY/WX    TMP DP  RH WIND       PRES   REMARKS
VICTORIA       CLOUDY    75  54  47 S22G32    29.89F
*BEEVILLE      CLOUDY    81  58  44 S16G26    29.85F
ROCKPORT       MOSUNNY   74  61  63 SE17G24   29.89F
*PORT ARANSAS  CLOUDY    70  63  77 SE15G22   29.89F
*PORT LAVACA   CLOUDY    73  60  62 S20G29    29.92F
*INGLESIDE     MOSUNNY   71  59  64 S23G33    29.88F
CORPUS CHRISTI PTSUNNY   79  57  46 S29G37    29.87F
CORPUS NAS     SUNNY     73  63  70 SE23G31   29.88F
*ROBSTOWN      MOSUNNY   80  59  48 SE22      29.87F
ALICE          SUNNY     82  53  36 SE20G26   29.83F
KINGSVILLE NAS PTSUNNY   79  62  56 SE20G28   29.84F
COTULLA        MOSUNNY   81  50  33 SE6       29.82F
*FAITH RANCH   SUNNY     81  54  39 VRB6      29.82F
LAREDO         MOSUNNY   82  50  32 MISG      29.82F
$$

TXZ248>255-142200-
DEEP SOUTH TEXAS

CITY           SKY/WX    TMP DP  RH WIND       PRES   REMARKS
BROWNSVILLE    MOSUNNY   78  58  49 S23G33    29.89F
PORT ISABEL    MOSUNNY   76  59  55 S25G32    29.87F
*SOUTH PADRE     N/A     73  64  73 S10       29.90F
HARLINGEN      MOSUNNY   81  57  43 S28G48    29.87F
*HEBBRONVILLE  NOT AVBL
MCALLEN        SUNNY     85  55  35 SE17G29   29.83F
*WESLACO       SUNNY     80  57  45 S22G29    29.84F
FALFURRIAS     SUNNY     82  50  33 S16G24    29.83F
EDINBURG       SUNNY     85  51  31 S17G31    29.84F
*ZAPATA        SUNNY     81  47  30 S7        29.81F
$$

TXZ213>215-236>238-242>244-246-247-251-254-255-142200-
CMAN STATIONS

STATION/POSITION TIME  TEMP    WIND        PRES    WAVE
                       AIR SEA DIR/SP/G            HT/PER
                 (UTC) (F)     (DEG/KT/KT) (MB)    (FT/S)
SABINE PASS      2000   66 60  170/  9/ 11 1017.3
SEA RIM ST PARK  2100   64     160/  7/  8 1015.4
NORTH JETTY/GLS  2000   64 62  210/ 10/ 11   N/A
EAGLE POINT      2000   69 58  200/ 19/ 23 1015.1
MORGANS POINT    2000   69 56  160/  9/ 13 1014.9
MISSION/ARANSAS  2000   69                 1014.0
PORT O`CONNOR    2000          160/ 14/ 17   N/A
PORT ARANSAS     2100   67 67  140/ 18/ 20 1012.8
MALAQUITE BEACH  2000   66     130/ 18/ 20 1013.1
BAFFIN BAY       2000   69 74  140/ 19/ 23 1012.7
PORT ISABEL      2000   74 64  160/ 19/ 23 1013.1
$$

GMZ080-GMZ150>470-142200-
OFFSHORE BUOY REPORTS

STATION/POSITION TIME  TEMP    WIND        PRES    WAVE
                       AIR SEA DIR/SP/G            HT/PER
                 (UTC) (F)     (DEG/KT/KT) (MB)    (FT/S)
20 E GALVESTON   2050   63 61  160/  8/  8 1015.0    3/ 6
90 E PT ARANSAS  2050   68 64  160/ 14/ 16 1014.0    5/ 6
35 NE PT MANSFLD 2050   69 67  160/ 14/ 16 1012.9    4/ 6
200 E PT ISABEL  2050                        N/A     4/ 5
$$



USA.gov is the U.S. government's official web portal to all federal, state and local government web resources and services.